Hourly Data Report for June 10, 2017

BORDEN AWOS
ONTARIO

44°16'20.000" N
79°54'42.000" W
222.50 m
611B002
71534
YBN

Download Data

Hourly Data (June 2017)
Hourly Data Report for June 10, 2017
TIME
LST
Temp Definition
°C
Dew Point Definition
°C
Rel Hum Definition
%
Precip. Amount Definition
mm

Wind Dir Definition
10's deg

Wind Spd Definition
km/h
Visibility Definition
km
Stn Press Definition
kPa
Hmdx Definition


Wind Chill Definition


Weather Definition


00:00 12.8 12.2 96   21 6 14.5 98.42     LegendNANA
01:00 11.6 11.1 97     0 14.5 98.45     LegendNANA
02:00 11.1 10.8 98     0 14.5 98.42     LegendNANA
03:00 9.7 9.6 99     0 12.9 98.45     LegendNANA
04:00 9.0 8.7 98     0 14.5 98.47     LegendNANA
05:00 9.0 9.0 100     0 0.5 98.49     LegendNANA
06:00 12.2 12.0 99     0 14.5 98.52     LegendNANA
07:00 16.8 14.0 84   19 6 14.5 98.55     LegendNANA
08:00 19.8 13.9 69   15 7 14.5 98.56     LegendNANA
09:00 22.2 14.5 62   17 11 14.5 98.52 26   LegendNANA
10:00
11:00 26.0 15.0 51   23 15 14.5 98.52 30   LegendNANA
12:00 28.1 13.8 42   24 24 14.5 98.48 31   LegendNANA
13:00 29.2 14.4 40   23 24 14.5 98.42 33   LegendNANA
14:00 29.6 14.0 38   22 15 14.5 98.37 33   LegendNANA
15:00 28.7 14.5 42   23 22 14.5 98.33 32   LegendNANA
16:00 29.1 14.5 41   21 24 14.5 98.32 33   LegendNANA
17:00 29.8 15.3 41   22 20 14.5 98.30 34   LegendNANA
18:00 29.3 16.2 45   22 22 14.5 98.27 34   LegendNANA
19:00 28.0 17.0 51   20 20 14.5 98.23 33   LegendNANA
20:00 25.8 16.6 57   18 17 14.5 98.22 31   LegendNANA
21:00 24.9 15.0 54   19 22 14.5 98.23 29   LegendNANA
22:00 25.1 13.7 49   20 28 14.5 98.25 28   LegendNANA
23:00 25.0 12.7 46   21 30 14.5 98.27 28   LegendNANA

Notes on Data Quality.

Legend

  • E = Estimated
  • M = Missing
  • NA = Not Available*
  • [empty] = Indicates an unobserved value
Date modified: